Home > Weather > Vaasa > Past weeks

Flag for Finland Weather for the Past 2 Weeks in Vaasa, Finland

Now
50 °F

Passing clouds.


Feels Like: 48 °F
Forecast: 38 / 52 °F
Wind: 5 mph from Northwest

Location: Vaasa Airport

Current Time: May 4, 2016 at 10:34:21 PM

Latest Report: May 4, 2016 at 9:50 PM


Visibility: N/A

Pressure: 30.18 "Hg

Humidity: 67%

Dew Point: 39 °F

Location of VaasaLocation

Historic Weather in Vaasa — Graph

°F

Vaasa Temperature Yesterday

Maximum temperature yesterday: 61 °F (at 1:20 PM)
Minimum temperature yesterday: 41 °F (at 12:20 AM)
Average temperature yesterday: 52 °F

High & Low Weather Summary for the Past Weeks

 TemperatureHumidityPressure
High64 °F (May 4, 12:20 PM)100% (Apr 19, 11:50 PM)30.42 "Hg (Apr 19, 11:50 PM)
Low25 °F (Apr 21, 4:50 AM)25% (May 3, 4:20 PM)29.45 "Hg (Apr 25, 11:50 AM)
Average41 °F73%29.95 "Hg
* Reported Apr 19 9:20 PM — May 4 9:20 PM, Vaasa, Weather by CustomWeather, © 2016

Note: Actual official high and low records may vary slightly from our data, if they occured in-between our weather recording intervals... More about our weather records

Advertising

Vaasa Weather History for the Previous 24 Hours

Scroll right to see more
 ConditionsComfort  
Time TempWeatherWind HumidityBarometerVisibility
9:20 PM
Wed, May 4
54 °FPassing clouds.7 mph58%30.18 "HgN/A
8:50 PM55 °FSunny.6 mph55%30.18 "Hg10 mi
8:20 PM57 °FPassing clouds.6 mph51%30.18 "HgN/A
7:20 PM59 °FSunny.9 mph45%30.18 "Hg10 mi
6:50 PM59 °FSunny.9 mph48%30.18 "Hg10 mi
6:20 PM61 °FSunny.13 mph42%30.18 "Hg10 mi
5:20 PM63 °FSunny.14 mph39%30.15 "Hg10 mi
4:50 PM63 °FSunny.12 mph37%30.15 "Hg10 mi
4:20 PM64 °FSunny.14 mph34%30.15 "Hg10 mi
3:50 PM64 °FPassing clouds.10 mph34%30.15 "HgN/A
3:20 PM64 °FPassing clouds.12 mph34%30.15 "HgN/A
1:50 PM64 °FPassing clouds.8 mph40%30.15 "HgN/A
1:20 PM64 °FPassing clouds.8 mph37%30.15 "HgN/A
12:20 PM64 °FPassing clouds.6 mph32%30.15 "HgN/A
11:50 AM63 °FPassing clouds.6 mph34%30.15 "HgN/A
10:50 AM61 °FSunny.3 mph42%30.15 "Hg10 mi
10:20 AM57 °FSunny.2 mph48%30.12 "Hg10 mi
9:20 AM54 °FPassing clouds.6 mph54%30.12 "HgN/A
8:50 AM50 °FPassing clouds.6 mph67%30.12 "HgN/A
8:20 AM46 °FPassing clouds.3 mph71%30.12 "HgN/A
3:50 AM39 °FClear.6 mph81%30.09 "Hg10 mi
3:20 AM39 °FClear.5 mph81%30.09 "Hg10 mi
2:50 AM41 °FClear.3 mph76%30.09 "Hg10 mi
1:50 AM41 °FClear.No wind70%30.09 "Hg10 mi
1:20 AM39 °FClear.3 mph75%30.09 "Hg10 mi
12:50 AM43 °FClear.1 mph66%30.09 "Hg10 mi
12:20 AM43 °FClear.No wind66%30.07 "Hg10 mi
11:50 PM
Tue, May 3
45 °FClear.5 mph57%30.07 "Hg10 mi
11:20 PM45 °FClear.5 mph57%30.07 "Hg10 mi
10:50 PM48 °FSunny.5 mph50%30.07 "Hg10 mi
10:20 PM50 °FSunny.7 mph50%30.07 "Hg10 mi
Weather by CustomWeather, © 2016

See weather overviewHow to use our weather pages